Location: Newark
(22.3060°N, 114.2134°E)
Time: 19:45:09
(UTC+00:00)

Vanguard 2 - Pass Details

Date: 06 August 2021
Orbit: 553 x 2937 km, 32.9° (Epoch: 27 September)

Event Time Altitude Azimuth Distance (km) Brightness Sun altitude
Rises 01:53:21 0° 286° (WNW) 3,491 10.6 53.0°
Reaches altitude 10° 01:55:34 10° 280° (W) 2,768 10.1 53.5°
Maximum altitude 02:02:04 47° 208° (SSW) 1,762 9.8 55.0°
Drops below altitude 10° 02:12:47 10° 139° (SE) 4,485 11.9 57.5°
Sets 02:17:25 0° 134° (SE) 5,866 12.4 58.5°
